[[{"header":{"parameterUnit":"m.s-1","parameterCategory":1,"la1":30.2991,"la2":30.254,"lo1":-89.0895,"lo2":-89.0444,"dy":0.0017,"dx":0.0017,"nx":28,"ny":28,"refTime":"2023-11-13T09:00:00:Z","depth":0,"parameterNumber":2,"parameterNumberName":"U-component_of_WINDS"},"data":[0,0,0,0,0,0,0,0,0,0,0,0,0,0,0,0,0,0,0,0,0,0,0,0,0,0,0,0,0,0,0,0,0,0,0,0,0,0,0,0,0,0,0,0,0,0,0,0,0,0,0,0,0,0,0,0,0,0,-11.3786,-11.3786,0,-11.3858,-11.3858,-11.3859,-11.3621,-11.3614,-11.3606,-11.36,-11.3673,-11.3681,-11.369,0,0,0,0,0,0,0,0,0,0,0,0,0,-11.3443,-11.3451,-11.3786,-11.3786,-11.3787,-11.3857,-11.3858,-11.3859,-11.3622,-11.3613,-11.3605,-11.3596,-11.367,-11.368,-11.3691,0,0,0,0,0,0,0,0,0,0,0,0,0,-11.3561,-11.3453,-11.3785,-11.3677,-11.3668,-11.3857,-11.3858,-11.386,-11.3624,-11.3613,-11.3602,-11.3592,-11.3667,-11.3679,-11.3692,-11.3988,0,0,-11.3732,-11.3737,0,0,0,0,0,0,0,0,-11.3555,-11.3574,-11.3692,-11.3685,-11.3675,-11.3719,-11.3764,-11.3903,-11.3627,-11.3641,-11.3599,-11.3587,-11.3697,-11.3707,-11.3744,-11.3992,-11.3995,-11.3733,-11.3741,-11.3746,-11.375,0,0,0,0,0,0,0,-11.3547,-11.357,-11.3814,-11.3694,-11.3684,-11.3625,-11.363,-11.3789,-11.3729,-11.3639,-11.3622,-11.3633,-11.369,-11.3732,-11.3744,-11.3996,-11.3732,-11.3744,-11.3752,-11.3757,-11.449,-11.4501,0,0,0,0,0,0,-11.3553,-11.3564,-11.3811,-11.3816,-11.3587,-11.3641,-11.3646,-11.3716,-11.3726,-11.3717,-11.3643,-11.3622,-11.3715,-11.3729,-11.3746,-11.4091,-11.3746,-11.3758,-11.3766,-11.4478,-11.4492,-11.4505,0,0,0,0,0,0,-11.3547,-11.3577,-11.3809,-11.3686,-11.3711,-11.3658,-11.3739,-11.3723,-11.3764,-11.3729,-11.3717,-11.3696,-11.3707,-11.3727,-11.3929,-11.409,-11.3764,-11.3776,-11.4464,-11.4482,-11.4499,-11.4786,0,0,0,0,0,0,-11.3538,-11.3576,-11.3688,-11.369,-11.3718,-11.3992,-11.3749,-11.3732,-11.3787,-11.3761,-11.3776,-11.3768,-11.37,-11.3911,-11.3943,-11.4102,-11.3786,-11.445,-11.4472,-11.4493,-11.4762,-11.4811,-11.4853,0,0,0,0,0,-11.3526,-11.3766,-11.3695,-11.3726,-11.3857,-11.4002,-11.4018,-11.3934,-11.3802,-11.3913,-11.3891,-11.3768,-11.4069,-11.3934,-11.3967,-11.4133,-11.4439,-11.4466,-11.4491,-11.4741,-11.4801,-11.4852,0,0,0,0,0,0,-11.3783,-11.3764,-11.3685,-11.3932,-11.3971,-11.3961,-11.4099,-11.4001,-11.4077,-11.4049,-11.3943,-11.3949,-11.417,-11.4172,-11.4022,-11.442,-11.4231,-11.4265,-11.441,-11.4467,-11.4512,-11.4504,-11.3797,0,0,0,0,0,-11.3869,-11.3988,-11.3965,-11.4186,-11.4209,-11.4153,-11.4212,-11.4145,-11.418,-11.4195,-11.4187,-11.4226,-11.4328,-11.4398,-11.4491,-11.4763,-11.4762,-11.4894,-11.494,-11.4977,-11.5007,-11.5149,-11.5207,-11.4591,-11.4591,-11.459,0,0,-11.4046,-11.4051,-11.4132,-11.4238,-11.4259,-11.4385,-11.4167,-11.4309,-11.4401,-11.4216,-11.4405,-11.4403,-11.4439,-11.4677,-11.4781,-11.4685,-11.5177,-11.5011,-11.5041,-11.505,-11.5182,-11.524,-11.5292,-11.4609,-11.4606,-11.4603,0,0,-11.4432,-11.445,-11.4634,-11.4661,-11.4697,-11.4658,-11.4703,-11.471,-11.47,-11.489,-11.4753,-11.4862,-11.5043,-11.5073,-11.5113,-11.5517,-11.5405,-11.555,-11.5787,-11.5928,-11.5976,-11.6018,-11.6159,-11.6212,-11.5581,-11.5581,-11.5582,0,-11.4647,-11.4831,-11.4741,-11.4893,-11.4943,-11.4784,-11.497,-11.5001,-11.5066,-11.5104,-11.4997,-11.522,-11.5234,-11.5476,-11.5575,-11.5613,-11.566,-11.5545,-11.5977,-11.6018,-11.6056,-11.6189,-11.6243,-11.5598,-11.5596,-11.5595,-11.5593,0,-11.5093,-11.5224,-11.5369,-11.5436,-11.5503,-11.5672,-11.5607,-11.5686,-11.5616,-11.5589,-11.5784,-11.5795,-11.5887,-11.5941,-11.5873,-11.6175,-11.6114,-11.5995,-11.5801,-11.6134,-11.6256,-11.6307,-11.5623,-11.5617,-11.5612,-11.5607,0,0,-11.5637,-11.5656,-11.571,-11.5738,-11.5769,-11.5867,-11.603,-11.6121,-11.619,-11.6242,-11.6374,-11.6532,-11.6422,-11.6467,-11.6402,-11.6526,-11.6842,-11.639,-11.6389,-11.647,-11.7173,-11.7259,-11.732,-11.6771,-11.6781,-11.6788,-11.7168,0,-11.6014,-11.6291,-11.6217,-11.6493,-11.6611,-11.6464,-11.6605,-11.664,-11.662,-11.6718,-11.6696,-11.6809,-11.6656,-11.6682,-11.6799,-11.6779,-11.6981,-11.6751,-11.6891,-11.6897,-11.6881,-11.7385,-11.7476,-11.7834,-11.7216,-11.7225,-11.723,0,-11.6489,-11.656,-11.6849,-11.686,-11.6907,-11.7035,-11.7112,-11.7209,-11.7246,-11.7223,-11.7276,-11.7187,-11.7346,-11.7158,-11.7376,-11.7221,-11.7275,-11.7275,-11.7287,-11.7292,-11.708,-11.74,-11.7946,-11.7998,-11.7306,-11.73,-11.7295,0,-11.6853,-11.7021,-11.7215,-11.7245,-11.7264,-11.7357,-11.737,-11.7396,-11.7456,-11.7525,-11.7562,-11.765,-11.7697,-11.7767,-11.7703,-11.7572,-11.7932,-11.7737,-11.7915,-11.7917,-11.7992,-11.7987,-11.8551,-11.8037,-11.8036,-11.8035,-11.8034,0,-11.7278,-11.746,-11.7378,-11.7497,-11.7696,-11.7611,-11.781,-11.7806,-11.7831,-11.7946,-11.7827,-11.7938,-11.785,-11.7954,-11.7906,-11.8093,-11.8116,-11.8101,-11.8085,-11.8109,-11.811,-11.8138,-11.811,-11.8049,-11.8046,-11.8043,-11.804,0,-11.7715,-11.7668,-11.7869,-11.7873,-11.7878,-11.8024,-11.8026,-11.8136,-11.811,-11.8258,-11.8287,-11.8246,-11.8362,-11.8308,-11.8429,-11.8397,-11.8637,-11.859,-11.8624,-11.861,-11.8789,-11.8772,-11.9386,-11.9461,-11.8904,-11.8909,-11.8914,0,-11.7987,-11.8123,-11.8142,-11.821,-11.8231,-11.8344,-11.8405,-11.8328,-11.8396,-11.845,-11.8554,-11.866,-11.8739,-11.8932,-11.8912,-11.9005,-11.8957,-11.9166,-11.8969,-11.8989,-11.8955,-11.8945,-11.8957,-11.9204,-11.921,-11.9215,-11.922,0,-11.8473,-11.8444,-11.8536,-11.8623,-11.8699,-11.8763,-11.8816,-11.888,-11.8805,-11.8888,-11.9005,-11.9068,-11.9193,-11.9298,-11.938,-11.9392,-11.9294,-11.9283,-11.9328,-11.9351,-11.9363,-11.9355,-11.8726,-11.9268,-11.9263,-11.9259,-11.9257,-11.9255,-11.8832,-11.8946,-11.8977,-11.9085,-11.9118,-11.9171,-11.9274,-11.9262,-11.9359,-11.9454,-11.9404,-11.9541,-11.9575,-11.9675,-11.9701,-11.9807,-11.9724,-11.979,-11.9806,-11.9823,-11.9845,-11.9352,-11.9822,-11.9821,-11.982,-11.9818,-11.9817,0,-11.9308,-11.9322,-11.9423,-11.9501,-11.9587,-11.949,-11.9545,-11.9622,-11.9744,-11.9785,-11.9867,-12.0003,-12.0106,-12.0097,-12.0192,-12.0278,-12.0235,-12.0305,-12.0295,-12.0299,-11.9915,-11.9865,-12.0338,-12.0338,-12.0338,-12.0338,-12.0338,-12.0338,-11.9566,-11.9752,-11.9728,-11.9931,-11.9943,-12.0076,-12.0116,-12.0165,-12.0197,-12.0354,-12.0439,-12.0433,-12.0454,-12.055,-12.0641,-12.0635,-12.0674,-12.076,-12.0738,-12.0378,-12.0326,-12.0277,-12.0228,-12.0771,-12.0771,-12.1112,-12.1115,-12.1117]},{"header":{"parameterUnit":"m.s-1","parameterCategory":1,"la1":30.2991,"la2":30.254,"lo1":-89.0895,"lo2":-89.0444,"dy":0.0017,"dx":0.0017,"nx":28,"ny":28,"refTime":"2023-11-13T09:00:00:Z","depth":0,"parameterNumber":3,"parameterNumberName":"V-component_of_WINDS"},"data":[0,0,0,0,0,0,0,0,0,0,0,0,0,0,0,0,0,0,0,0,0,0,0,0,0,0,0,0,0,0,0,0,0,0,0,0,0,0,0,0,0,0,0,0,0,0,0,0,0,0,0,0,0,0,0,0,0,0,1.1337,1.1338,0,1.1426,1.1427,1.1428,1.1397,1.1395,1.1393,1.1391,1.1486,1.149,1.1494,0,0,0,0,0,0,0,0,0,0,0,0,0,1.1145,1.1148,1.1337,1.1338,1.1339,1.1426,1.1427,1.1428,1.1398,1.1395,1.1393,1.139,1.1484,1.149,1.1495,0,0,0,0,0,0,0,0,0,0,0,0,0,1.123,1.1149,1.1337,1.1334,1.1335,1.1426,1.1427,1.1429,1.1398,1.1395,1.1392,1.1389,1.1483,1.1489,1.1496,1.1595,0,0,1.1516,1.1518,0,0,0,0,0,0,0,0,1.1226,1.1238,1.1333,1.1334,1.1335,1.1397,1.1394,1.1485,1.1399,1.1374,1.1391,1.1388,1.1459,1.1467,1.1491,1.16,1.1604,1.1516,1.152,1.1523,1.1525,0,0,0,0,0,0,0,1.122,1.1234,1.1372,1.1335,1.1336,1.133,1.1339,1.1411,1.1432,1.1376,1.1374,1.1385,1.1459,1.1484,1.1493,1.1605,1.1516,1.1522,1.1526,1.1528,1.1804,1.1807,0,0,0,0,0,0,1.1213,1.1229,1.1369,1.1375,1.1272,1.1336,1.1346,1.138,1.1431,1.1436,1.1387,1.1383,1.1475,1.1485,1.1496,1.1618,1.1523,1.1529,1.1533,1.1801,1.1805,1.1808,0,0,0,0,0,0,1.1209,1.1225,1.1366,1.1301,1.1319,1.1342,1.1382,1.1384,1.1409,1.144,1.1444,1.1409,1.1473,1.1487,1.1571,1.1621,1.1532,1.1538,1.1797,1.1802,1.1807,1.1862,0,0,0,0,0,0,1.1203,1.1224,1.1261,1.1302,1.1322,1.1438,1.1384,1.1388,1.142,1.1415,1.1461,1.1466,1.1472,1.1562,1.1578,1.1628,1.1543,1.1792,1.1799,1.1805,1.1856,1.1868,1.1879,0,0,0,0,0,1.1196,1.1273,1.1263,1.128,1.1368,1.1441,1.1453,1.1457,1.1424,1.1462,1.1483,1.1465,1.1613,1.1571,1.1589,1.1642,1.1789,1.1797,1.1804,1.1851,1.1866,1.1879,0,0,0,0,0,0,1.1237,1.1278,1.1268,1.1359,1.1397,1.1436,1.1484,1.1472,1.152,1.1514,1.1518,1.1529,1.1616,1.1637,1.159,1.1743,1.1696,1.1708,1.1725,1.174,1.1752,1.1745,1.1548,0,0,0,0,0,1.1257,1.1311,1.1344,1.1423,1.1442,1.146,1.1492,1.1492,1.1531,1.1547,1.1573,1.1613,1.1669,1.1706,1.1758,1.1859,1.187,1.1904,1.1916,1.1925,1.1936,1.1993,1.201,1.1833,1.1833,1.1833,0,0,1.1298,1.1327,1.1361,1.1432,1.1461,1.1519,1.1473,1.1536,1.158,1.1557,1.1638,1.1659,1.1705,1.1798,1.1841,1.1819,1.1987,1.1935,1.1942,1.1948,1.2003,1.202,1.2034,1.1839,1.1838,1.1837,0,0,1.1403,1.143,1.1499,1.1529,1.1574,1.1586,1.1602,1.1644,1.1657,1.1738,1.1723,1.1776,1.1871,1.1905,1.1935,1.2055,1.2042,1.2073,1.2134,1.219,1.2204,1.2216,1.2261,1.2277,1.2083,1.2083,1.2083,0,1.1449,1.1534,1.1536,1.1601,1.1633,1.1615,1.1687,1.1716,1.1776,1.18,1.1774,1.1895,1.1924,1.2027,1.2056,1.208,1.2101,1.2068,1.2201,1.2214,1.2225,1.2269,1.2285,1.2086,1.2086,1.2086,1.2085,0,1.159,1.165,1.17,1.1759,1.1797,1.1865,1.1879,1.1917,1.1915,1.193,1.2016,1.205,1.2111,1.2135,1.2133,1.2238,1.2223,1.2199,1.2153,1.2246,1.2287,1.2303,1.2092,1.209,1.2089,1.2088,0,0,1.1722,1.1782,1.1801,1.1828,1.1877,1.1924,1.1993,1.2051,1.2086,1.2129,1.2187,1.227,1.2249,1.2282,1.2284,1.2333,1.243,1.2303,1.2305,1.2327,1.2551,1.257,1.2589,1.242,1.2424,1.2426,1.2548,0,1.1832,1.1951,1.1956,1.2065,1.2122,1.2106,1.2166,1.2204,1.2221,1.2273,1.2291,1.2351,1.2317,1.2338,1.2385,1.2408,1.2475,1.2399,1.2477,1.248,1.2468,1.261,1.263,1.2743,1.2564,1.2566,1.2568,0,1.1977,1.2024,1.2139,1.2182,1.2206,1.226,1.2316,1.2365,1.2408,1.2417,1.2456,1.2452,1.2524,1.2475,1.2576,1.2524,1.2557,1.2573,1.2577,1.2586,1.2531,1.2624,1.2779,1.2797,1.2593,1.2591,1.2589,0,1.2064,1.2157,1.2238,1.2262,1.2314,1.2353,1.2376,1.2417,1.2453,1.2502,1.2526,1.2583,1.2615,1.2661,1.2673,1.2635,1.2774,1.2726,1.2786,1.2786,1.2816,1.2815,1.298,1.2835,1.2835,1.2834,1.2834,0,1.2188,1.2259,1.2279,1.2329,1.2409,1.2415,1.2495,1.2516,1.2553,1.2609,1.2599,1.2651,1.2663,1.2719,1.2729,1.2812,1.2826,1.2837,1.2839,1.2839,1.2838,1.2861,1.2854,1.2839,1.2838,1.2837,1.2836,0,1.23,1.2315,1.2403,1.2446,1.2458,1.2516,1.2553,1.2603,1.2618,1.2689,1.2706,1.2732,1.2797,1.2813,1.2891,1.2898,1.2998,1.2991,1.2983,1.2983,1.3043,1.3038,1.3231,1.3257,1.3093,1.3094,1.3096,0,1.2378,1.2433,1.2482,1.2518,1.2543,1.2602,1.2639,1.2648,1.2687,1.2742,1.2786,1.285,1.2901,1.3007,1.3034,1.3094,1.309,1.3154,1.3099,1.3098,1.3094,1.3091,1.3098,1.3164,1.3166,1.3168,1.3169,0,1.2517,1.2522,1.2575,1.2632,1.2677,1.2722,1.2766,1.2796,1.2811,1.2857,1.2923,1.2963,1.3043,1.3108,1.3169,1.3195,1.3186,1.3186,1.3203,1.3204,1.3198,1.3204,1.3013,1.3181,1.318,1.3179,1.3178,1.3178,1.2616,1.2664,1.2707,1.2768,1.2801,1.2843,1.2892,1.2915,1.297,1.3036,1.3038,1.3111,1.3156,1.3237,1.3267,1.3325,1.3306,1.3331,1.3338,1.3344,1.3351,1.3187,1.3336,1.3336,1.3336,1.3335,1.3335,0,1.2756,1.2783,1.2838,1.29,1.2948,1.2934,1.2982,1.3024,1.3088,1.313,1.3182,1.326,1.3323,1.3355,1.3419,1.346,1.3457,1.3476,1.3474,1.3481,1.3363,1.3342,1.3477,1.3477,1.3477,1.3477,1.3477,1.3477,1.2834,1.2917,1.2928,1.3029,1.3055,1.3127,1.3156,1.3195,1.3229,1.3316,1.3369,1.3389,1.3428,1.3495,1.3553,1.3561,1.3586,1.3608,1.3614,1.3503,1.3489,1.3475,1.3456,1.3613,1.3613,1.3728,1.3729,1.3729]}]]